DW9161 Weather Reports


Display with metric or nautical units.
time (UTC)temp
F
wind
direction
speed
MPH
gust
MPH
rain 1hr
in
rain 24hr
in
rain mn
in
humidity
%
barometer
mb
20260906161533 80 271 0.0 2.0 0.00 0.00 0.00 87 1016.7
20260906161034 80 271 0.0 3.0 0.00 0.00 0.00 88 1016.7
20260906160607 80 271 1.0 3.0 0.00 0.00 0.00 89 1016.7
20260906160043 80 271 1.0 3.0 0.00 0.00 0.00 88 1016.8
20260906155535 80 271 0.0 4.0 0.00 0.00 0.00 88 1016.9
20260906155032 80 271 1.0 6.0 0.00 0.00 0.00 87 1016.8
20260906154548 80 273 2.0 6.0 0.00 0.00 0.00 87 1017.1
20260906154045 80 260 0.0 8.0 0.00 0.00 0.00 86 1016.8
20260906153541 80 262 4.0 8.0 0.00 0.00 0.00 86 1017.0
20260906153036 81 218 2.0 4.0 0.00 0.00 0.00 85 1016.6
20260906152531 81 215 0.0 2.0 0.00 0.00 0.00 85 1016.3
20260906152048 81 215 0.0 2.0 0.00 0.00 0.00 84 1016.2
20260906151543 81 215 1.0 6.0 0.00 0.00 0.00 83 1016.2
20260906151038 82 215 1.0 6.0 0.00 0.00 0.00 82 1016.2
20260906150632 82 203 2.0 5.0 0.00 0.00 0.00 81 1016.2
20260906150044 82 205 2.0 5.0 0.00 0.00 0.00 80 1016.2
20260906145539 82 193 2.0 5.0 0.00 0.00 0.00 81 1016.1
20260906145033 82 183 2.0 5.0 0.00 0.00 0.00 81 1016.1
20260906144530 82 212 2.0 3.0 0.00 0.00 0.00 81 1016.0
20260906144046 81 201 2.0 3.0 0.00 0.00 0.00 82 1016.0
20260906143542 81 201 2.0 4.0 0.00 0.00 0.00 82 1016.0
20260906143039 81 203 2.0 4.0 0.00 0.00 0.00 82 1016.0
20260906142533 81 170 1.0 3.0 0.00 0.00 0.00 83 1016.2
20260906142050 81 171 1.0 4.0 0.00 0.00 0.00 83 1016.2
20260906141546 80 171 2.0 4.0 0.00 0.00 0.00 83 1016.2
20260906141045 80 171 1.0 2.0 0.00 0.00 0.00 84 1016.3
20260906140552 80 171 1.0 2.0 0.00 0.00 0.00 84 1016.3
20260906140049 80 171 1.0 3.0 0.00 0.00 0.00 84 1016.4
20260906135545 80 171 1.0 3.0 0.00 0.00 0.00 84 1016.4
20260906135041 80 171 1.0 3.0 0.00 0.00 0.00 84 1016.4
20260906134536 80 171 1.0 4.0 0.00 0.00 0.00 84 1016.3
20260906134032 80 172 1.0 4.0 0.00 0.00 0.00 84 1016.3
20260906133548 79 173 2.0 4.0 0.00 0.00 0.00 85 1016.2
20260906133044 79 174 2.0 4.0 0.00 0.00 0.00 85 1016.2
20260906132540 79 172 2.0 3.0 0.00 0.00 0.00 86 1016.2
20260906132037 78 157 1.0 3.0 0.00 0.00 0.00 86 1016.2
20260906131533 78 157 1.0 2.0 0.00 0.00 0.00 87 1016.2
20260906131050 78 157 1.0 3.0 0.00 0.00 0.00 87 1016.2
20260906130558 78 153 1.0 3.0 0.00 0.00 0.00 87 1016.3
20260906130034 78 153 2.0 3.0 0.00 0.00 0.00 87 1016.2
20260906125530 78 153 1.0 5.0 0.00 0.00 0.00 87 1016.2
20260906125046 78 153 1.0 5.0 0.00 0.00 0.00 87 1016.1
20260906124603 78 155 1.0 3.0 0.00 0.00 0.00 86 1016.0
20260906124043 78 155 1.0 3.0 0.00 0.00 0.00 86 1016.0
20260906123537 78 155 1.0 3.0 0.00 0.00 0.00 86 1015.9
20260906123033 78 155 1.0 4.0 0.00 0.00 0.00 86 1015.8
20260906122548 78 155 2.0 4.0 0.00 0.00 0.00 86 1015.7
20260906122107 78 155 2.0 3.0 0.00 0.00 0.00 86 1015.7
20260906121540 78 155 1.0 3.0 0.00 0.00 0.00 86 1015.6
20260906121037 78 155 1.0 3.0 0.00 0.00 0.00 86 1015.6
20260906120631 78 155 1.0 3.0 0.00 0.00 0.00 86 1015.6
20260906120043 78 155 1.0 3.0 0.00 0.00 0.00 86 1015.5
20260906115538 78 155 1.0 3.0 0.00 0.00 0.00 86 1015.4
20260906115033 78 155 1.0 3.0 0.00 0.00 0.00 86 1015.2
20260906114549 78 155 1.0 3.0 0.00 0.00 0.00 86 1015.2
20260906114046 78 155 2.0 3.0 0.00 0.00 0.00 85 1015.2
20260906113541 78 155 1.0 3.0 0.00 0.00 0.00 85 1015.1
20260906112534 78 155 1.0 3.0 0.00 0.00 0.00 85 1015.2
20260906112049 78 155 1.0 3.0 0.00 0.00 0.00 85 1015.2
20260906111546 78 155 0.0 2.0 0.00 0.00 0.00 85 1015.4
20260906111042 78 155 0.0 2.0 0.00 0.00 0.00 85 1015.5
20260906110549 78 155 1.0 2.0 0.00 0.00 0.00 85 1015.4
20260906110045 78 155 1.0 2.0 0.00 0.00 0.00 85 1015.3
20260906105545 78 155 1.0 2.0 0.00 0.00 0.00 84 1015.2
20260906105043 78 155 1.0 3.0 0.00 0.00 0.00 84 1015.2
20260906104539 78 155 1.0 3.0 0.00 0.00 0.00 84 1015.1
20260906104034 78 155 1.0 3.0 0.00 0.00 0.00 84 1015.1
20260906103529 78 155 1.0 3.0 0.00 0.00 0.00 84 1014.9
20260906103107 78 155 1.0 3.0 0.00 0.00 0.00 84 1014.9
20260906102604 78 155 1.0 3.0 0.00 0.00 0.00 84 1014.9
20260906102037 78 155 1.0 3.0 0.00 0.00 0.00 84 1014.9
20260906101533 78 155 1.0 3.0 0.00 0.00 0.00 84 1014.8
20260906101030 78 155 1.0 3.0 0.00 0.00 0.00 84 1014.8
20260906100625 78 155 2.0 3.0 0.00 0.00 0.00 84 1014.8
20260906100100 78 155 1.0 3.0 0.00 0.00 0.00 83 1014.8
20260906095534 78 155 1.0 3.0 0.00 0.00 0.00 83 1014.9
20260906095030 79 155 1.0 3.0 0.00 0.00 0.00 83 1014.8
20260906094609 79 155 2.0 3.0 0.00 0.00 0.00 83 1014.8
20260906094043 79 155 1.0 3.0 0.00 0.00 0.00 83 1014.8
20260906093559 79 155 2.0 3.0 0.00 0.00 0.00 83 1014.9
20260906093054 79 155 1.0 2.0 0.00 0.00 0.00 83 1014.9
20260906092549 79 155 0.0 2.0 0.00 0.00 0.00 83 1014.9
20260906092106 79 155 0.0 2.0 0.00 0.00 0.00 83 1014.9
20260906091539 79 155 0.0 2.0 0.00 0.00 0.00 83 1014.8
20260906091036 79 155 1.0 2.0 0.00 0.00 0.00 83 1014.8
20260906090608 79 155 1.0 2.0 0.00 0.00 0.00 82 1014.8
20260906090106 79 155 1.0 2.0 0.00 0.00 0.00 82 1014.7
20260906085540 79 155 1.0 2.0 0.00 0.00 0.00 82 1014.8
20260906085056 79 155 1.0 2.0 0.00 0.00 0.00 82 1014.9
20260906084531 79 155 1.0 2.0 0.00 0.00 0.00 82 1014.8
20260906084046 79 155 1.0 3.0 0.00 0.00 0.00 82 1014.8
20260906083543 79 155 2.0 3.0 0.00 0.00 0.00 82 1014.7
20260906083042 79 155 2.0 3.0 0.00 0.00 0.00 82 1014.7
20260906082558 80 155 2.0 3.0 0.00 0.00 0.00 82 1014.6
20260906082052 80 155 2.0 3.0 0.00 0.00 0.00 82 1014.6
20260906081547 80 155 1.0 3.0 0.00 0.00 0.00 81 1014.7
20260906081042 80 155 1.0 2.0 0.00 0.00 0.00 81 1014.6
20260906080549 80 154 1.0 3.0 0.00 0.00 0.00 81 1014.6
20260906080045 80 154 2.0 3.0 0.00 0.00 0.00 81 1014.6
20260906075543 80 154 2.0 3.0 0.00 0.00 0.00 81 1014.5
20260906075038 80 154 2.0 3.0 0.00 0.00 0.00 81 1014.4
20260906074534 80 154 2.0 4.0 0.00 0.00 0.00 80 1014.5
20260906074030 80 154 2.0 4.0 0.00 0.00 0.00 80 1014.5
20260906073546 80 154 2.0 3.0 0.00 0.00 0.00 80 1014.4
20260906073042 80 154 2.0 4.0 0.00 0.00 0.00 80 1014.5
20260906072536 80 154 2.0 4.0 0.00 0.00 0.00 80 1014.6
20260906072032 80 155 2.0 3.0 0.00 0.00 0.00 80 1014.6
20260906071547 80 155 2.0 4.0 0.00 0.00 0.00 80 1014.6
20260906071044 80 155 2.0 4.0 0.00 0.00 0.00 80 1014.7
20260906070552 80 155 2.0 3.0 0.00 0.00 0.00 80 1014.7
20260906070050 80 154 2.0 3.0 0.00 0.00 0.00 80 1014.7
20260906065544 80 154 2.0 3.0 0.00 0.00 0.00 80 1014.8
20260906065040 80 154 2.0 3.0 0.00 0.00 0.00 80 1014.8
20260906064556 81 154 2.0 3.0 0.00 0.00 0.00 80 1014.8
20260906064030 81 154 2.0 3.0 0.00 0.00 0.00 80 1014.9
20260906063546 81 154 2.0 3.0 0.00 0.00 0.00 80 1014.9
20260906063045 81 154 2.0 3.0 0.00 0.00 0.00 80 1015.0
20260906062601 81 154 1.0 3.0 0.00 0.00 0.00 80 1015.0
20260906062055 81 154 2.0 3.0 0.00 0.00 0.00 80 1015.0
20260906061608 81 154 2.0 3.0 0.00 0.00 0.00 80 1014.9
20260906061046 81 154 2.0 3.0 0.00 0.00 0.00 79 1014.9
20260906060555 81 154 2.0 4.0 0.00 0.00 0.00 79 1014.9
20260906060033 81 154 2.0 5.0 0.00 0.00 0.00 79 1014.9
20260906055547 82 154 2.0 5.0 0.00 0.00 0.00 78 1014.8
20260906055044 82 154 3.0 4.0 0.00 0.00 0.00 78 1014.9
20260906054559 82 155 2.0 4.0 0.00 0.00 0.00 78 1014.9
20260906054033 82 160 3.0 4.0 0.00 0.00 0.00 78 1014.8
20260906053548 82 160 2.0 4.0 0.00 0.00 0.00 78 1014.8
20260906053044 82 160 2.0 4.0 0.00 0.00 0.00 78 1014.8
20260906052540 82 160 3.0 4.0 0.00 0.00 0.00 78 1014.9
20260906052037 82 162 2.0 4.0 0.00 0.00 0.00 78 1014.9
20260906051533 82 162 2.0 4.0 0.00 0.00 0.00 77 1014.9
20260906051051 82 162 3.0 4.0 0.00 0.00 0.00 78 1014.9
20260906050557 82 165 2.0 4.0 0.00 0.00 0.00 77 1015.0
20260906050030 82 165 2.0 4.0 0.00 0.00 0.00 77 1015.0
20260906045538 82 165 2.0 3.0 0.00 0.00 0.00 76 1014.9
20260906045048 83 165 2.0 4.0 0.00 0.00 0.00 76 1015.0
20260906044543 83 165 2.0 4.0 0.00 0.00 0.00 75 1015.0
20260906044038 83 165 2.0 4.0 0.00 0.00 0.00 75 1015.0
20260906043534 83 166 3.0 4.0 0.00 0.00 0.00 75 1014.9
20260906043049 83 167 2.0 3.0 0.00 0.00 0.00 76 1015.0
20260906042546 83 167 2.0 4.0 0.00 0.00 0.00 76 1015.0
20260906042044 83 167 2.0 4.0 0.00 0.00 0.00 75 1015.1
20260906041535 83 167 2.0 4.0 0.00 0.00 0.00 76 1015.0
20260906041113 83 167 2.0 4.0 0.00 0.00 0.00 76 1015.0
20260906040558 83 170 3.0 4.0 0.00 0.00 0.00 76 1015.0
20260906040038 83 171 2.0 4.0 0.00 0.00 0.00 76 1015.0
20260906035556 83 171 2.0 4.0 0.00 0.00 0.00 76 1015.0
20260906035033 84 171 3.0 3.0 0.00 0.00 0.00 75 1014.9
20260906034551 84 171 2.0 3.0 0.00 0.00 0.00 75 1015.0
20260906034050 84 171 2.0 3.0 0.00 0.00 0.00 75 1015.0
20260906033532 84 171 2.0 3.0 0.00 0.00 0.00 75 1014.8
20260906033050 84 171 2.0 4.0 0.00 0.00 0.00 75 1014.8
20260906032547 84 171 2.0 4.0 0.00 0.00 0.00 75 1014.8
20260906032108 84 172 2.0 4.0 0.00 0.00 0.00 75 1014.8
20260906031545 84 172 2.0 4.0 0.00 0.00 0.00 75 1014.6
20260906031044 84 172 2.0 4.0 0.00 0.00 0.00 75 1014.5
20260906030551 84 172 2.0 4.0 0.00 0.00 0.00 75 1014.4
20260906030031 84 172 2.0 4.0 0.00 0.00 0.00 75 1014.2
20260906025549 85 172 2.0 4.0 0.00 0.00 0.00 75 1014.2
20260906025047 85 173 2.0 4.0 0.00 0.00 0.00 75 1014.1
20260906024606 85 174 2.0 4.0 0.00 0.00 0.00 75 1014.2
20260906024103 85 176 2.0 4.0 0.00 0.00 0.00 75 1014.1
20260906023539 85 179 3.0 4.0 0.00 0.00 0.00 75 1014.0
20260906023050 85 186 2.0 4.0 0.00 0.00 0.00 75 1014.1
20260906022544 85 188 1.0 3.0 0.00 0.00 0.00 75 1014.1
20260906022103 85 188 2.0 3.0 0.00 0.00 0.00 75 1014.0
20260906021537 85 188 2.0 4.0 0.00 0.00 0.00 75 1013.8
20260906021054 85 190 2.0 4.0 0.00 0.00 0.00 75 1013.7
20260906020605 85 191 2.0 3.0 0.00 0.00 0.00 75 1013.5
20260906020039 85 191 2.0 3.0 0.00 0.00 0.00 75 1013.5
20260906015537 85 191 1.0 3.0 0.00 0.00 0.00 74 1013.4
20260906015102 86 191 2.0 3.0 0.00 0.00 0.00 74 1013.4
20260906014544 86 191 2.0 3.0 0.00 0.00 0.00 74 1013.3
20260906014036 86 191 1.0 3.0 0.00 0.00 0.00 74 1013.3
20260906013548 86 191 1.0 3.0 0.00 0.00 0.00 74 1013.1
20260906013034 86 191 1.0 3.0 0.00 0.00 0.00 73 1013.2
20260906012543 86 191 1.0 2.0 0.00 0.00 0.00 73 1013.1
20260906012054 86 191 1.0 3.0 0.00 0.00 0.00 73 1013.1
20260906011548 87 191 2.0 3.0 0.00 0.00 0.00 72 1013.0
20260906011050 87 191 1.0 3.0 0.00 0.00 0.00 72 1012.9
20260906010611 87 191 1.0 3.0 0.00 0.00 0.00 72 1012.9
20260906010039 87 191 1.0 3.0 0.00 0.00 0.00 72 1012.9
20260906005535 87 191 1.0 3.0 0.00 0.00 0.00 71 1012.8
20260906005049 87 191 1.0 2.0 0.00 0.00 0.00 71 1012.9
20260906004540 88 191 1.0 3.0 0.00 0.00 0.00 70 1012.9
20260906004053 88 191 2.0 3.0 0.00 0.00 0.00 70 1012.8
20260906003548 88 191 1.0 3.0 0.00 0.00 0.00 70 1012.8
20260906003035 89 191 2.0 3.0 0.00 0.00 0.00 70 1012.8
20260906002556 89 191 2.0 3.0 0.00 0.00 0.00 69 1012.7
20260906002057 89 191 1.0 3.0 0.00 0.00 0.00 68 1012.7
20260906001610 90 191 2.0 3.0 0.00 0.00 0.00 68 1012.7
20260906001045 90 193 2.0 3.0 0.00 0.00 0.00 68 1012.8
20260906000628 90 193 1.0 4.0 0.00 0.00 0.00 67 1012.7
20260906000036 90 193 2.0 4.0 0.00 0.00 0.00 66 1012.8
20260905235548 91 195 2.0 3.0 0.00 0.00 0.00 66 1012.8
20260905235044 91 195 1.0 3.0 0.00 0.00 0.00 66 1012.7
20260905234536 91 195 1.0 3.0 0.00 0.00 0.00 66 1012.8
20260905234100 91 195 2.0 4.0 0.00 0.00 0.00 64 1012.7
20260905233543 92 198 1.0 4.0 0.00 0.00 0.00 65 1012.7
20260905233035 92 178 2.0 4.0 0.00 0.00 0.00 64 1012.8
20260905232541 92 178 2.0 4.0 0.00 0.00 0.00 63 1012.7
20260905232034 92 184 2.0 4.0 0.00 0.00 0.00 63 1012.7
20260905231550 92 189 2.0 3.0 0.00 0.00 0.00 63 1012.7
20260905231051 92 190 1.0 3.0 0.00 0.00 0.00 63 1012.6
20260905230605 92 190 1.0 4.0 0.00 0.00 0.00 63 1012.6
20260905230053 92 190 1.0 4.0 0.00 0.00 0.00 63 1012.7
20260905225540 92 195 2.0 5.0 0.00 0.00 0.00 62 1012.6
20260905225052 92 161 2.0 4.0 0.00 0.00 0.00 62 1012.6
20260905224537 92 173 1.0 5.0 0.00 0.00 0.00 63 1012.5
20260905224048 92 217 1.0 5.0 0.00 0.00 0.00 63 1012.5
20260905223553 92 106 2.0 4.0 0.00 0.00 0.00 62 1012.4
20260905223110 92 105 2.0 5.0 0.00 0.00 0.00 62 1012.4
20260905222540 92 120 2.0 5.0 0.00 0.00 0.00 62 1012.3
20260905222037 92 127 2.0 5.0 0.00 0.00 0.00 63 1012.3
20260905221543 92 132 2.0 4.0 0.00 0.00 0.00 62 1012.1
20260905221038 92 133 2.0 4.0 0.00 0.00 0.00 63 1012.1
20260905220616 92 133 2.0 5.0 0.00 0.00 0.00 62 1012.1
20260905220034 91 106 2.0 5.0 0.00 0.00 0.00 62 1012.2
20260905215543 92 106 2.0 6.0 0.00 0.00 0.00 62 1012.4
20260905215039 91 106 3.0 6.0 0.00 0.00 0.00 62 1012.4
20260905214615 91 82 2.0 6.0 0.00 0.00 0.00 62 1012.5
20260905214058 92 113 3.0 6.0 0.00 0.00 0.00 61 1012.5
20260905213557 92 139 2.0 6.0 0.00 0.00 0.00 60 1012.5
20260905213106 92 139 3.0 6.0 0.00 0.00 0.00 59 1012.6
20260905212543 92 122 2.0 5.0 0.00 0.00 0.00 61 1012.7
20260905212051 92 124 2.0 5.0 0.00 0.00 0.00 61 1012.9
20260905211535 92 169 2.0 5.0 0.00 0.00 0.00 59 1012.9
20260905211039 92 230 3.0 5.0 0.00 0.00 0.00 58 1013.1
20260905210613 92 184 2.0 4.0 0.00 0.00 0.00 59 1013.1
20260905210046 92 120 2.0 4.0 0.00 0.00 0.00 58 1013.2
20260905205540 92 131 2.0 4.0 0.00 0.00 0.00 59 1013.3
20260905205053 92 160 1.0 6.0 0.00 0.00 0.00 58 1013.4
20260905204544 92 160 2.0 6.0 0.00 0.00 0.00 58 1013.4
20260905204104 92 102 2.0 5.0 0.00 0.00 0.00 58 1013.5
20260905203548 92 115 1.0 3.0 0.00 0.00 0.00 58 1013.7
20260905203034 92 115 1.0 6.0 0.00 0.00 0.00 58 1013.9
20260905202600 92 114 2.0 4.0 0.00 0.00 0.00 57 1014.0
20260905202038 92 97 2.0 5.0 0.00 0.00 0.00 58 1014.1
20260905201536 92 89 2.0 4.0 0.00 0.00 0.00 60 1014.3
20260905201042 92 102 1.0 4.0 0.00 0.00 0.00 58 1014.5
20260905200555 91 102 1.0 4.0 0.00 0.00 0.00 59 1014.6
20260905200040 91 103 2.0 4.0 0.00 0.00 0.00 59 1014.6
20260905195549 91 88 1.0 5.0 0.00 0.00 0.00 60 1014.7
20260905195109 91 357 3.0 5.0 0.00 0.00 0.00 60 1014.7
20260905194558 91 97 2.0 4.0 0.00 0.00 0.00 58 1014.7
20260905194043 91 165 1.0 4.0 0.00 0.00 0.00 58 1014.8
20260905193536 91 314 2.0 4.0 0.00 0.00 0.00 56 1014.7
20260905193047 91 359 1.0 4.0 0.00 0.00 0.00 60 1014.8
20260905192606 90 360 1.0 5.0 0.00 0.00 0.00 60 1014.8
20260905192038 90 112 3.0 5.0 0.00 0.00 0.00 60 1015.0
20260905191544 90 116 2.0 6.0 0.00 0.00 0.00 60 1015.1
20260905191036 90 103 4.0 6.0 0.00 0.00 0.00 59 1015.2
20260905190612 90 358 2.0 6.0 0.00 0.00 0.00 60 1015.4
20260905190056 90 110 3.0 6.0 0.00 0.00 0.00 63 1015.4
20260905185537 90 62 2.0 6.0 0.00 0.00 0.00 62 1015.5
20260905185152 90 94 2.0 6.0 0.00 0.00 0.00 64 1015.8
20260905184549 90 2 2.0 9.0 0.00 0.00 0.00 65 1015.9
20260905184041 90 84 2.0 9.0 0.00 0.00 0.00 63 1016.0
20260905183608 90 18 2.0 7.0 0.00 0.00 0.00 64 1016.0
20260905183047 90 15 1.0 9.0 0.00 0.00 0.00 64 1016.1
20260905182547 89 53 3.0 9.0 0.00 0.00 0.00 67 1016.2
20260905182035 89 358 3.0 9.0 0.00 0.00 0.00 67 1016.2
20260905181541 89 344 3.0 9.0 0.00 0.00 0.00 67 1016.3
20260905181049 88 1 3.0 6.0 0.00 0.00 0.00 67 1016.0
20260905180612 88 109 3.0 6.0 0.00 0.00 0.00 66 1016.0
20260905175539 88 38 3.0 7.0 0.00 0.00 0.00 66 1015.9
20260905175039 88 43 3.0 9.0 0.00 0.00 0.00 68 1016.0
20260905174538 88 10 3.0 9.0 0.00 0.00 0.00 70 1016.0
20260905174045 88 352 4.0 7.0 0.00 0.00 0.00 68 1015.9
20260905173555 88 305 3.0 6.0 0.00 0.00 0.00 68 1016.0
20260905173050 88 308 2.0 8.0 0.00 0.00 0.00 67 1016.0
20260905172533 88 359 3.0 8.0 0.00 0.00 0.00 67 1015.9
20260905172039 88 350 4.0 11.0 0.00 0.00 0.00 68 1015.9
20260905171540 87 321 4.0 9.0 0.00 0.00 0.00 69 1016.0
20260905171043 87 1 5.0 13.0 0.00 0.00 0.00 69 1015.9
20260905170609 87 358 5.0 13.0 0.00 0.00 0.00 68 1016.0
20260905170054 88 335 4.0 10.0 0.00 0.00 0.00 69 1016.0
20260905165555 87 325 3.0 9.0 0.00 0.00 0.00 70 1016.0
20260905165048 87 337 3.0 12.0 0.00 0.00 0.00 70 1016.1
20260905164617 88 307 4.0 12.0 0.00 0.00 0.00 69 1016.1
20260905164045 88 336 5.0 10.0 0.00 0.00 0.00 67 1016.1
20260905163612 88 347 5.0 10.0 0.00 0.00 0.00 67 1016.1
20260905163034 88 324 2.0 6.0 0.00 0.00 0.00 67 1016.1
20260905162554 88 341 3.0 6.0 0.00 0.00 0.00 67 1016.0
20260905162048 88 319 2.0 5.0 0.00 0.00 0.00 67 1015.9